Wind_Speed
1 2 2 3 2 4 5 4 3 5 4 3 2 2 2 2 2 3 4 0 2 0 5 7 7 9 9 8 10 16 16 16 18 19 23 25 25 25 23 24 25 26 26 25 24 24 22 22 22 22 24 24 24 24 24 24 25 25 24 25 25 25 25 24 24 24 25 26 25 24 23 23 22 23 23 21 20 19 20 22 23 22 20 21 21 20
2 1 3 3 2 3 3 4 6 5 4 3 2 2 2 0 2 3 3 1 2 2 4 6 7 10 10 7 10 15 13 15 20 20 23 26 25 24 23 25 26 25 24 23 24 25 23 24 23 24 25 25 25 24 24 26 26 26 26 26 26 25 26 24 23 24 25 25 24 23 22 22 22 22 22 22 22 22 21 21 22 21 21 22 22 21
1 2 2 3 5 7 6 6 7 4 4 3 1 2 1 1 2 4 3 1 1 1 4 6 6 10 12 10 12 18 17 20 26 24 25 26 22 21 22 23 24 24 24 23 25 26 25 25 25 26 27 28 28 27 28 28 28 28 28 28 27 27 26 25 24 25 25 25 24 23 23 21 21 21 22 24 25 25 23 22 21 21 21 22 22 21
2 3 2 5 5 6 5 5 5 3 1 1 1 1 1 1 2 1 1 2 3 2 2 6 5 9 12 10 11 19 23 25 27 26 27 27 22 22 21 19 19 21 24 26 25 25 24 25 26 27 29 29 30 30 30 30 30 30 30 29 29 29 27 26 26 26 25 25 24 24 23 21 20 20 22 24 26 27 25 23 21 21 22 23 22 21
3 0 1 3 3 4 5 3 3 2 1 3 4 2 2 1 3 2 1 2 3 1 3 5 6 6 7 7 7 9 12 17 21 22 24 26 25 24 22 20 19 18 21 24 25 25 24 24 25 25 27 28 29 30 30 30 30 30 30 30 30 30 28 27 26 26 25 25 25 24 23 22 21 21 22 23 26 28 26 23 22 22 22 21 22 22
2 0 0 3 2 2 4 3 4 3 1 3 3 1 2 3 5 3 3 3 1 2 3 2 4 5 4 4 5 4 2 7 11 13 19 24 22 20 20 21 21 18 18 19 20 22 22 23 23 23 24 25 26 27 28 29 29 29 30 30 30 30 28 27 26 26 25 25 26 25 24 24 24 24 24 24 25 26 25 24 24 23 22 21 22 23
2 1 1 4 5 3 3 1 4 5 1 2 2 4 4 5 6 3 4 3 1 3 4 3 1 5 6 6 8 8 7 7 7 8 17 22 17 16 18 17 15 15 16 17 18 19 20 21 22 22 22 21 22 23 24 25 26 26 28 28 29 28 27 27 26 25 25 26 26 25 24 24 24 24 24 23 23 24 25 26 25 23 23 23 23 24
3 3 1 3 4 4 3 1 2 6 3 2 3 4 2 6 5 1 3 1 2 3 3 4 4 5 6 6 9 11 11 9 7 7 14 16 12 11 12 10 9 10 12 14 17 20 20 20 20 20 19 17 17 19 20 21 21 23 24 25 26 26 26 27 25 25 26 26 26 25 25 24 23 22 22 21 22 26 28 28 27 25 25 25 25 26
2 4 4 4 5 3 4 0 2 3 4 2 3 2 3 6 3 2 2 1 2 4 3 3 3 3 6 5 6 9 9 7 8 10 11 8 7 10 10 8 9 10 11 12 14 18 18 17 17 17 16 15 15 17 17 17 18 19 20 22 23 24 25 25 24 25 26 27 26 25 25 25 23 23 23 22 23 28 30 29 27 26 27 27 27 27
3 2 2 3 5 2 3 2 4 2 3 4 4 2 5 4 4 3 2 1 3 3 3 5 5 3 6 4 4 5 6 7 9 9 5 7 12 11 9 9 10 11 12 12 12 14 15 14 13 13 13 13 14 14 14 14 15 16 18 19 21 23 24 23 23 25 26 27 26 26 26 25 25 26 26 24 23 27 29 26 25 27 29 29 29 29
2 2 2 2 3 3 6 4 5 4 4 5 4 3 4 2 4 3 1 4 2 4 3 5 7 4 5 4 2 4 5 7 7 4 3 8 11 9 7 8 8 7 9 10 11 12 13 12 11 11 11 11 11 11 11 12 13 15 16 18 20 22 23 22 23 26 27 27 27 27 27 27 27 27 27 27 26 27 28 26 26 29 30 30 30 29
1 2 1 2 3 5 6 4 6 5 3 3 2 3 3 2 4 3 2 4 0 4 2 3 2 3 5 4 1 2 4 4 4 3 6 8 8 7 5 5 4 4 6 7 8 10 11 11 11 10 9 9 9 9 9 10 12 14 16 17 19 22 23 22 23 26 27 28 28 28 27 28 29 28 29 29 27 27 27 27 28 30 30 31 31 30
2 1 2 4 0 4 5 4 4 5 3 1 2 5 4 1 2 1 1 1 3 4 3 5 5 2 7 5 3 5 5 4 5 4 7 10 8 6 6 6 6 5 5 6 7 8 9 9 10 9 9 8 7 7 9 10 11 13 15 17 19 22 23 22 23 25 26 28 29 28 28 28 29 30 30 28 27 27 27 28 30 30 30 31 31 31
1 2 2 4 1 6 5 4 3 1 1 3 4 6 4 3 1 3 3 2 4 3 4 5 3 3 5 4 6 8 6 7 8 5 3 4 5 7 8 9 9 8 8 8 8 8 8 8 8 9 8 7 6 8 9 11 12 13 15 17 19 21 22 21 22 24 26 28 29 28 29 29 30 30 30 28 27 28 28 29 30 29 29 30 30 30
4 2 4 4 3 8 7 4 6 6 4 6 4 4 4 4 3 3 3 2 3 1 3 4 1 3 2 2 5 3 1 3 5 7 7 9 9 8 8 11 13 13 12 12 11 9 9 9 8 9 9 8 8 9 11 11 12 13 15 17 18 19 20 20 22 24 26 29 29 29 30 31 31 30 28 27 28 28 28 29 30 30 29 30 30 29
6 4 2 1 3 11 7 2 2 6 3 4 2 1 4 4 2 1 2 2 2 1 3 2 3 5 4 7 9 6 5 6 7 12 14 15 13 9 12 17 18 18 17 16 15 13 12 12 11 11 11 11 11 12 12 11 12 13 14 15 17 18 18 19 21 23 26 29 29 29 31 32 32 29 27 27 27 27 27 28 29 31 31 30 29 29
5 2 3 3 2 4 2 4 2 3 1 2 2 3 4 1 3 3 1 1 4 3 4 3 6 6 3 9 11 10 12 10 9 12 14 16 16 15 20 23 21 20 20 19 17 16 16 16 16 16 16 15 14 13 12 12 12 12 12 15 16 17 18 18 20 23 25 28 30 30 31 32 31 30 29 28 29 28 27 26 28 31 33 30 28 28
6 1 3 2 2 2 4 5 4 4 3 3 3 3 1 3 3 3 1 2 1 5 4 4 8 7 2 6 4 1 5 8 8 10 13 17 19 20 25 25 19 18 18 17 17 17 17 16 17 19 19 18 16 14 12 12 12 11 11 14 16 17 18 18 19 22 24 28 30 30 31 32 31 32 32 31 30 29 28 29 29 32 33 29 27 27
5 2 3 3 2 2 3 2 1 4 5 4 2 2 2 1 1 2 2 2 3 4 4 4 7 6 6 8 4 3 3 6 8 10 10 13 18 22 24 21 16 15 15 16 18 19 17 15 16 18 19 18 15 12 11 11 11 10 10 12 14 16 17 18 18 21 24 27 30 30 31 31 31 32 33 33 33 31 31 32 32 34 33 29 27 27
3 3 2 3 3 1 2 1 4 0 3 3 3 3 2 2 3 4 3 3 3 4 5 5 4 5 7 6 5 7 9 8 9 8 8 11 16 19 18 16 15 14 15 15 16 17 16 15 15 15 17 17 15 12 11 10 9 9 10 11 12 14 15 18 19 20 23 27 29 30 31 32 31 31 34 35 35 33 33 34 34 35 33 29 28 27
3 3 3 2 5 1 2 4 7 7 5 2 1 2 2 1 2 0 1 2 4 3 3 4 5 8 6 4 6 7 5 5 8 9 8 11 13 12 11 11 11 10 11 12 13 13 14 15 15 14 16 18 17 15 12 9 9 9 10 10 11 12 14 17 19 20 23 26 28 30 32 33 32 32 35 37 36 34 34 34 35 35 33 30 29 27
3 3 4 2 2 3 3 3 4 5 6 7 6 7 7 5 4 1 4 2 2 2 3 2 5 11 6 4 3 2 3 3 5 7 7 7 6 6 6 7 8 8 9 9 12 15 16 16 16 16 17 17 17 16 13 10 10 11 10 9 10 12 13 15 18 20 22 25 27 30 32 33 33 33 36 37 37 35 34 35 36 35 34 32 30 28
5 4 4 3 3 3 1 1 2 2 1 2 4 4 5 5 4 4 5 3 1 2 3 1 5 12 5 5 4 2 5 6 5 4 2 2 3 5 5 6 7 7 8 10 14 17 17 17 15 16 17 17 17 16 15 14 13 13 12 10 11 12 12 13 16 19 21 23 27 29 31 33 34 35 37 38 38 37 36 36 36 36 36 34 31 29
4 3 3 3 1 2 2 1 3 4 3 1 3 1 2 4 5 5 5 3 2 3 4 2 6 12 5 5 5 3 5 4 3 2 4 6 7 7 7 7 8 7 8 12 15 17 18 17 16 17 18 19 18 17 16 16 17 16 15 13 13 13 12 13 15 18 21 23 25 29 31 32 33 35 38 39 40 39 38 37 38 38 37 35 32 31
5 3 4 4 1 1 2 2 2 3 2 2 3 3 5 6 7 6 4 2 2 8 9 5 8 11 4 5 3 1 2 4 8 9 11 14 14 12 10 9 9 9 11 14 16 15 15 15 17 18 19 19 18 18 18 20 21 20 18 17 16 15 15 15 15 17 20 22 25 28 31 33 33 35 38 39 40 41 40 40 40 40 38 37 34 32
8 4 6 6 5 5 4 3 4 2 1 2 4 7 9 9 9 7 4 3 7 12 11 8 9 12 9 3 3 3 4 6 9 12 14 15 15 13 13 12 11 12 13 13 12 13 13 14 16 18 20 21 21 20 21 23 26 25 22 20 19 18 18 18 17 17 19 21 25 28 31 33 35 36 37 38 39 40 40 41 42 42 39 38 36 34
4 3 8 8 9 9 7 6 6 7 6 5 9 11 12 12 12 8 4 6 10 9 8 11 12 14 18 12 5 6 6 6 8 9 12 14 14 14 16 15 14 13 11 8 10 12 14 15 18 19 21 23 24 23 23 25 28 29 28 25 23 22 21 21 20 19 20 22 24 28 31 33 35 36 37 38 39 39 40 40 42 42 40 40 38 36
4 3 9 10 11 11 10 9 7 11 10 11 13 14 14 15 14 12 11 14 13 7 9 14 11 11 21 18 10 10 9 6 8 11 14 16 16 18 19 17 15 12 9 9 12 15 18 22 25 26 26 26 24 23 24 25 28 31 32 31 28 27 25 25 24 23 22 23 24 27 30 32 34 36 36 38 39 40 40 40 41 42 41 41 41 38
4 4 8 9 12 13 13 11 8 10 10 10 13 15 16 16 16 16 19 21 16 9 11 16 11 12 20 17 8 10 11 11 14 18 21 20 18 19 18 15 13 11 12 15 18 21 26 29 31 32 32 29 26 26 28 31 32 33 34 34 34 33 30 28 28 26 25 24 24 26 30 33 35 36 37 37 39 40 42 42 42 42 41 43 43 39
3 5 7 8 10 11 13 13 9 9 7 6 10 13 15 18 21 22 23 23 19 14 14 18 14 16 20 14 7 12 17 16 18 19 19 20 19 19 17 13 13 16 19 22 25 28 32 32 31 32 33 32 31 33 35 36 36 35 34 34 36 37 35 31 31 30 28 26 25 26 30 33 36 37 38 38 39 41 42 43 44 43 42 44 44 41
2 5 6 6 5 8 12 13 9 8 7 6 7 10 15 18 20 21 20 16 14 14 16 17 16 18 19 11 10 21 24 20 19 16 15 18 18 17 15 17 19 22 25 27 29 31 32 30 29 29 30 32 34 35 36 35 35 35 34 33 34 37 37 35 33 33 31 28 26 27 30 33 37 39 40 40 40 41 43 44 44 44 43 44 45 44
3 2 1 3 3 8 11 12 9 7 6 7 10 14 17 16 15 15 13 11 12 14 15 14 14 17 15 6 10 20 18 14 16 15 16 19 18 17 21 25 27 28 29 30 30 30 29 28 28 28 29 31 33 34 34 34 33 34 34 33 33 33 36 38 36 35 34 31 29 30 31 33 37 40 42 42 41 41 42 45 46 46 45 46 47 47
5 4 2 4 5 10 10 7 5 4 3 9 16 19 17 14 13 11 9 12 16 14 11 11 13 17 14 6 9 13 9 9 15 17 19 20 21 25 29 30 29 29 30 29 28 26 27 28 28 28 28 29 30 31 31 31 32 32 32 32 32 31 33 36 37 37 36 34 33 32 32 33 36 40 42 43 43 42 42 45 47 48 48 48 48 49
6 7 5 4 5 9 7 3 6 4 10 13 11 10 13 15 16 14 13 16 15 11 11 12 14 17 15 10 11 12 11 14 20 23 24 25 26 28 27 25 26 29 30 30 29 27 28 29 29 28 27 27 28 29 28 28 29 30 29 30 31 31 31 32 33 34 34 34 35 34 34 35 37 39 42 44 44 44 44 44 46 47 48 48 49 50
7 7 5 4 3 4 2 6 4 9 13 9 5 4 9 11 12 14 16 17 15 14 14 15 18 19 18 17 18 21 23 24 28 33 33 29 27 26 24 26 29 32 34 33 32 31 28 26 24 23 21 21 21 22 23 24 25 26 27 28 29 30 30 30 31 31 31 32 35 35 36 36 38 39 41 43 44 45 45 45 45 46 47 48 48 49
7 6 4 2 3 2 2 5 9 8 5 6 8 8 7 4 3 6 11 13 14 14 14 16 19 19 19 23 26 29 32 32 36 40 33 23 23 27 29 32 32 31 31 29 27 24 19 16 15 14 14 14 15 16 17 18 19 21 22 24 26 28 29 30 31 31 31 33 35 36 37 37 38 39 40 41 43 45 46 46 47 47 47 47 47 47
5 5 3 4 5 4 5 8 7 6 8 11 12 8 5 5 5 5 8 12 13 13 13 13 15 16 17 21 28 34 33 28 27 24 13 11 21 26 26 27 25 22 20 17 14 12 11 10 11 11 12 13 13 15 16 17 18 18 19 20 22 24 27 28 30 31 32 34 35 36 37 37 38 39 39 40 42 44 45 46 47 47 48 48 48 48
4 4 5 6 5 4 6 8 6 5 10 15 12 4 8 13 12 8 6 12 12 12 15 14 14 15 14 17 27 34 26 16 12 6 2 12 23 22 18 18 15 14 13 10 10 10 9 10 11 12 13 14 14 15 16 17 19 20 20 20 21 22 24 26 28 29 30 32 33 35 35 36 37 38 39 40 41 42 44 45 45 46 48 49 50 49
7 4 4 5 5 4 6 7 7 8 10 9 6 2 9 19 17 10 6 11 8 9 17 18 14 14 17 21 26 21 9 5 7 9 12 20 21 16 15 13 11 13 14 13 14 13 11 10 12 14 15 17 17 17 18 19 19 21 22 23 23 24 25 26 27 27 28 29 31 32 33 33 35 36 38 40 40 41 42 43 43 44 46 49 50 49
8 5 4 5 7 7 8 8 6 6 7 5 4 3 4 12 15 11 5 9 4 11 18 21 17 18 24 24 16 6 5 7 11 17 21 20 15 14 14 13 14 17 16 14 14 12 11 12 15 17 18 19 20 21 21 22 22 21 22 22 24 25 25 26 27 27 27 28 29 30 31 32 33 35 37 39 39 39 40 40 42 43 44 46 48 48
6 5 5 7 8 9 10 8 4 3 5 5 4 3 4 6 8 8 6 5 9 11 10 12 16 18 21 17 9 7 11 14 16 18 17 14 14 16 16 17 19 17 14 13 12 11 12 15 18 20 20 21 22 23 23 24 24 24 22 22 24 24 23 25 26 27 28 28 28 29 30 31 33 34 36 37 38 38 38 38 40 41 41 42 43 45
5 4 4 5 6 6 7 6 3 5 7 6 5 6 7 6 3 8 5 4 8 7 2 3 7 9 8 7 6 7 10 12 12 13 13 12 15 17 17 19 19 16 14 14 14 16 19 21 22 22 22 22 24 24 25 26 26 26 25 25 24 24 24 25 26 27 27 27 27 28 29 30 32 33 34 35 36 35 35 36 37 38 38 38 39 41
7 5 4 5 5 4 4 5 5 6 6 13 13 5 5 6 4 6 6 4 2 4 10 11 7 5 5 6 6 7 11 13 14 16 17 17 17 18 18 19 19 18 19 20 21 23 25 26 26 25 23 23 24 24 25 27 28 27 26 26 25 25 26 26 26 27 27 27 28 28 28 30 31 32 33 33 32 32 33 33 35 36 36 36 37 38
6 6 4 5 5 5 4 7 7 5 7 19 17 6 9 15 9 3 6 5 4 9 13 10 5 4 7 10 12 13 16 18 19 20 21 21 20 20 20 21 21 23 24 25 26 28 28 29 29 27 25 24 24 25 26 28 29 30 28 27 26 26 27 28 28 28 27 27 28 28 27 28 29 29 30 29 28 29 30 31 33 33 34 35 36 37
9 9 6 4 5 5 5 6 5 3 10 21 18 9 12 20 14 4 4 4 2 5 7 5 6 9 10 12 13 15 17 19 20 21 22 23 23 22 21 22 23 24 25 26 26 27 28 29 29 28 27 27 27 28 30 30 32 32 30 28 27 27 28 29 29 29 28 27 27 27 26 26 26 27 27 26 26 27 27 29 30 31 32 34 35 36
7 7 3 2 3 4 5 6 4 2 5 14 17 11 7 9 7 3 2 2 4 6 8 9 10 11 11 12 14 16 17 18 20 20 21 23 24 24 23 24 24 24 25 25 25 26 27 29 29 30 30 30 29 30 32 32 32 33 31 29 28 28 29 30 29 29 27 26 26 25 25 25 25 25 25 24 24 24 25 25 26 27 29 32 34 35
1 1 2 1 2 3 4 5 4 1 1 5 10 11 7 3 4 6 8 9 8 10 11 11 11 12 12 13 15 16 17 18 19 21 22 22 24 25 26 27 27 27 27 27 28 28 28 29 31 32 32 32 31 31 31 32 32 32 31 30 29 29 29 30 29 28 26 25 25 24 23 23 23 24 23 23 23 23 23 23 24 26 28 30 32 34
1 2 2 2 3 3 4 4 1 2 1 4 5 5 3 4 7 10 12 13 12 11 12 13 14 15 15 15 15 17 19 19 20 22 23 23 25 26 27 28 30 30 30 30 30 30 31 32 33 33 34 35 34 33 33 33 32 31 31 30 29 29 29 29 28 26 25 24 23 22 21 21 21 21 21 22 22 22 22 22 23 24 25 25 26 27
2 2 0 1 0 2 6 7 4 2 5 8 5 2 4 8 13 17 17 16 15 14 15 17 17 18 19 19 18 18 19 21 21 22 24 26 27 28 29 30 31 32 33 32 32 33 34 35 36 36 36 37 36 36 36 34 33 32 31 29 29 29 28 28 26 25 23 23 21 20 18 18 19 19 20 21 21 21 21 21 21 20 19 18 18 19
2 0 1 2 1 2 3 1 1 1 4 8 8 9 14 18 19 18 17 17 17 17 18 19 20 21 22 22 20 19 20 23 24 24 26 28 29 30 31 32 33 34 35 35 35 36 37 37 37 37 38 37 36 36 36 35 33 32 30 29 28 28 27 26 24 23 22 21 19 18 17 17 18 18 19 20 20 21 21 20 19 17 15 15 15 15
4 3 3 3 2 4 4 1 3 2 4 12 17 19 21 21 17 15 17 19 19 19 20 21 23 24 25 25 23 22 23 26 27 27 28 30 31 32 33 33 35 36 38 38 39 39 39 38 37 37 38 37 36 36 36 35 33 32 30 28 27 26 25 24 23 22 21 19 18 17 16 17 17 18 19 19 19 18 18 19 18 17 15 15 15 15
Wind_Direction
117 103 193 196 196 209 197 174 83 53 29 14 51 17 352 48 66 99 101 45 341 293 236 238 248 259 258 255 262 266 263 248 235 232 236 240 241 240 238 237 237 239 246 252 252 251 251 249 243 238 236 236 238 241 245 248 248 250 252 252 252 253 253 251 248 244 241 242 243 243 243 242 241 240 238 227 217 215 213 214 217 221 229 224 213 212
71 111 221 188 91 67 101 86 64 48 38 20 8 19 349 71 105 73 83 147 37 35 264 276 282 274 267 261 265 265 263 257 249 241 242 244 241 239 239 240 240 242 245 244 242 243 243 245 243 240 237 236 240 245 250 251 250 251 252 253 254 254 254 254 249 245 244 244 244 244 244 243 239 237 232 219 210 209 210 214 216 222 228 219 210 213
85 237 223 115 84 67 57 58 59 43 51 53 347 37 356 230 113 57 45 130 101 119 270 305 311 283 275 266 258 254 247 250 253 249 249 250 246 241 240 241 239 237 237 233 232 235 238 242 242 241 240 240 245 250 252 251 250 250 251 253 254 254 254 253 249 246 244 244 243 243 243 239 235 231 225 216 210 208 209 214 218 223 224 214 210 216
171 227 150 103 99 86 68 62 75 65 63 184 223 83 247 228 108 63 344 245 202 155 304 309 301 276 275 270 256 251 244 247 255 256 256 255 251 249 245 244 240 233 231 228 228 234 237 240 241 242 244 245 248 250 250 249 249 250 251 253 253 254 254 252 250 246 244 244 243 242 241 237 231 224 219 215 212 211 212 216 216 217 216 212 214 216
162 316 61 105 122 112 103 110 133 145 227 220 203 204 242 63 79 113 47 261 213 66 349 314 302 277 264 260 263 262 241 237 246 252 256 253 250 251 250 245 240 233 233 231 229 234 239 241 244 247 249 250 250 250 250 250 249 251 252 253 253 254 254 252 250 247 244 243 241 241 238 231 223 217 215 211 207 207 212 214 207 205 208 209 214 210
170 325 226 126 132 137 131 160 189 181 231 234 201 271 292 63 67 72 36 5 350 331 292 5 341 296 293 284 283 308 257 227 232 238 247 250 247 247 250 248 243 236 236 238 238 239 242 244 246 248 249 250 250 250 251 251 250 251 254 255 255 256 255 253 251 247 243 240 240 239 236 231 223 217 212 204 200 202 205 203 198 199 204 208 212 207
126 47 357 120 132 121 116 211 193 161 168 281 270 328 338 70 70 40 27 27 1 283 251 137 120 276 298 293 272 272 267 242 217 223 242 247 246 244 246 247 245 242 235 235 241 243 243 245 245 246 247 248 249 250 250 251 252 253 255 257 258 258 257 255 251 246 242 238 237 237 234 231 225 219 211 202 200 200 199 198 198 202 205 207 210 207
107 116 49 100 122 114 131 221 181 154 148 254 264 306 357 82 87 71 53 88 244 316 282 173 166 261 282 257 240 242 249 242 214 228 248 249 243 230 226 225 231 240 234 226 231 237 241 245 246 246 247 248 247 248 250 251 253 255 257 259 260 260 257 255 250 244 241 238 236 234 231 224 217 215 212 207 205 202 201 202 204 207 207 207 208 205
54 147 167 142 136 137 149 160 316 155 139 221 258 309 78 89 92 102 62 320 312 1 314 221 177 269 273 245 228 227 229 227 220 234 248 234 186 176 181 197 215 224 231 226 223 232 239 243 246 246 245 245 244 246 250 253 255 257 259 260 260 259 257 255 250 242 238 236 234 230 226 219 211 208 209 212 211 205 202 203 206 208 207 208 208 205
15 153 194 141 152 156 121 36 346 50 116 197 214 82 77 84 75 75 66 34 14 335 257 204 175 250 280 249 193 197 201 205 222 238 230 147 143 158 176 200 220 223 230 232 221 226 237 240 239 239 237 237 239 245 252 256 258 260 261 259 259 259 258 255 246 238 235 234 230 226 222 216 210 206 207 210 209 205 203 205 212 213 208 207 207 206
42 68 9 62 117 125 118 76 25 52 119 156 170 87 69 60 60 55 56 73 39 288 258 199 188 201 288 286 164 178 197 198 213 223 137 133 146 166 189 205 223 227 222 223 218 217 224 227 224 225 228 229 234 243 249 254 257 259 260 259 259 259 260 254 240 234 233 231 228 225 220 215 211 208 207 206 205 207 209 213 219 217 209 206 206 206
85 79 65 81 99 121 117 69 30 33 86 115 147 118 90 10 33 29 8 59 76 253 282 299 275 200 243 274 296 253 248 214 217 201 157 154 162 174 198 215 226 225 209 206 210 212 212 212 209 210 215 217 225 237 245 252 256 257 258 259 259 260 261 253 238 232 232 230 229 225 218 213 210 209 208 207 207 211 216 221 221 215 208 205 205 206
123 136 111 89 113 180 137 78 36 6 7 56 165 123 105 336 10 356 289 121 224 237 271 316 352 275 242 255 251 255 262 236 237 227 153 145 164 195 220 231 234 230 218 205 203 205 205 204 201 201 205 211 224 241 251 258 261 261 261 261 262 262 262 255 240 233 232 230 229 223 216 213 213 212 211 211 213 218 222 223 219 213 209 208 207 208
120 351 107 94 311 221 187 130 128 264 244 188 173 138 139 167 187 241 220 208 238 244 297 324 6 267 272 287 249 240 241 223 214 219 167 140 202 232 238 242 243 236 228 219 211 206 204 203 205 208 210 218 241 258 262 265 267 267 265 265 267 267 266 259 245 235 231 231 230 223 217 217 218 215 212 213 219 222 220 218 216 215 214 212 211 213
178 274 191 164 178 189 194 193 167 157 169 200 192 150 171 176 182 213 182 204 243 251 302 313 321 217 234 285 246 213 242 242 213 223 256 274 258 241 249 255 251 242 236 229 222 216 212 212 219 224 225 234 258 269 268 268 269 270 271 272 274 276 273 264 249 238 232 231 231 225 220 219 220 218 215 218 220 217 213 213 215 217 216 215 215 218
185 234 211 154 153 165 177 250 152 118 140 220 218 184 232 217 170 136 158 171 140 358 292 244 238 224 215 269 264 244 264 270 238 235 246 255 248 237 254 260 253 249 246 239 232 227 225 226 231 240 244 248 263 272 271 272 273 273 279 284 285 285 282 269 253 241 234 232 232 228 223 221 219 217 217 217 213 209 211 214 218 219 216 215 218 221
168 233 314 0 40 141 126 354 34 96 154 200 159 202 228 201 98 119 275 41 99 266 266 184 254 280 302 285 266 234 239 241 230 237 240 244 246 247 253 255 253 253 254 252 250 246 242 240 243 250 252 253 263 271 272 277 278 279 292 300 298 295 289 276 259 246 237 233 232 230 226 222 218 215 214 212 208 210 214 217 223 222 215 215 220 222
149 160 311 353 13 355 16 18 35 45 54 118 160 219 218 25 43 117 233 342 131 252 269 179 238 274 287 275 300 91 218 221 218 231 238 244 246 246 249 252 252 255 258 262 268 265 256 251 252 253 252 254 260 264 268 277 281 287 303 309 308 305 299 287 268 252 241 234 232 232 228 223 220 216 213 214 213 213 216 220 226 222 215 216 221 222
152 158 310 344 327 315 26 44 114 26 39 105 171 278 103 108 271 143 168 230 197 230 268 240 244 257 227 237 292 353 228 217 213 213 220 233 235 237 245 250 249 252 256 263 270 269 265 265 265 257 250 248 247 249 259 272 279 289 302 306 310 311 306 295 276 257 245 237 233 233 230 226 224 219 215 219 220 217 218 223 225 221 217 218 220 221
140 173 242 312 318 343 45 171 187 121 22 30 353 338 90 139 187 179 179 192 176 204 254 273 277 256 229 223 244 244 236 222 203 192 205 222 225 232 243 250 250 251 257 266 271 272 274 276 272 260 249 243 237 237 250 263 274 287 292 299 307 308 306 301 286 265 249 240 234 233 231 227 225 221 218 221 223 220 220 224 223 220 218 218 219 220
120 185 203 305 326 339 172 205 190 182 177 167 282 220 188 143 118 150 270 181 157 185 239 263 276 265 240 195 208 219 228 213 182 175 201 218 223 230 237 243 245 250 260 270 277 283 286 280 267 253 242 237 235 236 242 253 268 277 280 293 303 300 300 300 293 277 258 245 236 232 232 230 228 224 221 223 225 222 222 224 222 218 218 219 219 221
156 175 157 155 257 207 212 237 190 180 179 180 195 198 196 184 140 171 255 223 146 183 216 211 272 274 253 150 184 197 86 86 131 152 181 197 207 214 214 224 237 251 264 279 290 294 293 281 262 245 233 227 229 232 237 246 257 262 267 282 296 295 294 295 293 284 267 252 241 234 232 233 231 227 224 225 225 224 224 224 219 217 218 218 220 225
139 123 141 157 189 189 246 356 87 95 118 185 219 209 189 184 160 169 215 219 139 247 252 213 265 271 262 98 78 71 100 98 96 109 145 165 189 199 208 235 252 263 276 294 301 299 294 281 260 241 231 224 225 231 238 246 252 257 262 270 282 290 290 290 290 283 270 257 246 238 235 235 233 229 226 226 225 224 225 222 218 219 220 219 222 228
114 108 144 148 98 37 10 14 63 50 46 309 266 211 156 195 187 181 201 192 152 210 216 185 246 262 279 79 96 124 120 129 164 227 255 245 235 227 237 261 270 276 291 297 297 296 290 277 254 239 232 226 227 236 244 251 256 258 260 263 273 282 282 281 285 282 271 260 250 242 237 237 235 231 228 227 226 224 224 222 220 221 221 220 222 227
159 154 139 140 139 3 352 337 348 359 20 230 239 194 194 210 189 185 211 189 214 223 204 189 238 251 276 46 56 167 183 208 218 229 242 241 236 240 255 266 265 268 281 288 292 294 289 272 255 246 241 235 237 246 255 262 264 263 261 261 266 273 272 270 276 281 274 262 252 246 240 238 236 233 230 229 227 225 224 223 223 224 223 221 222 226
160 175 152 155 191 209 221 220 209 215 169 206 230 205 204 209 191 183 192 185 228 233 217 215 243 256 267 308 358 314 256 242 238 229 232 234 232 241 253 254 253 260 269 279 292 298 290 275 264 256 250 244 244 254 267 273 273 268 262 260 263 266 267 265 267 275 275 264 254 249 245 241 238 235 232 230 228 226 226 226 226 226 223 222 223 226
133 188 177 182 202 208 219 220 177 145 139 192 216 206 201 208 202 191 182 203 223 235 238 234 237 261 270 263 267 279 255 253 258 229 222 233 239 246 248 242 243 251 258 278 298 297 293 289 283 272 260 252 252 261 274 280 280 275 267 262 262 263 263 262 261 265 270 266 256 252 250 246 242 239 235 233 231 229 228 229 228 227 225 223 225 228
82 196 197 202 215 221 232 232 174 151 174 200 205 203 204 206 201 198 212 221 218 218 246 244 222 239 263 260 249 257 254 252 258 237 229 237 244 249 248 240 239 246 261 285 288 287 291 292 288 281 271 261 259 266 276 284 288 283 274 267 262 261 261 260 259 261 265 265 260 256 255 251 246 242 238 236 233 230 229 229 229 229 228 226 226 228
98 201 211 209 222 235 243 240 193 174 195 201 199 203 202 201 200 203 218 226 220 207 237 248 228 224 254 259 237 240 246 242 249 247 241 243 245 244 241 235 238 254 272 280 282 287 290 287 283 281 278 272 270 278 287 292 292 287 280 274 267 262 260 260 259 260 261 263 265 263 257 252 247 244 240 237 235 232 229 228 229 231 232 229 226 228
131 204 217 208 224 242 247 246 224 202 212 210 209 209 200 201 204 206 217 225 224 222 237 250 251 248 254 257 245 257 259 256 264 262 247 243 240 234 231 236 250 261 268 276 284 289 287 283 282 282 281 280 281 286 289 290 288 286 286 283 274 265 262 262 262 261 260 264 270 267 257 251 248 245 242 239 238 234 231 230 231 232 232 229 226 228
183 213 214 197 227 252 247 250 241 217 226 237 235 227 213 209 209 212 219 223 224 233 240 247 259 261 257 254 260 267 268 267 273 268 244 236 232 231 243 254 260 265 270 278 284 285 283 283 284 283 281 281 283 284 285 285 285 286 287 286 280 271 264 263 264 264 263 264 269 267 260 254 250 247 244 242 240 237 233 231 231 233 232 230 227 228
182 223 216 146 208 248 245 248 242 227 242 258 254 241 226 217 216 217 216 213 214 224 234 240 249 256 257 247 252 263 265 261 260 251 238 238 239 250 264 267 268 273 277 280 281 281 282 283 283 282 281 281 282 282 283 285 286 285 285 287 287 278 267 263 265 268 267 266 266 267 266 260 252 248 246 244 242 240 235 231 231 232 232 231 230 230
167 190 196 152 203 246 250 239 211 176 218 249 248 241 231 226 229 226 216 217 216 212 220 230 237 251 260 252 249 261 260 251 257 253 246 247 251 259 266 269 274 278 280 282 282 282 284 285 284 284 284 285 285 285 286 286 284 283 284 287 288 282 271 267 268 270 269 267 264 266 269 265 256 251 248 246 244 242 238 233 232 232 231 232 233 232
177 194 198 169 204 242 239 140 114 167 222 238 243 234 226 228 229 228 229 230 221 210 222 236 245 256 262 258 257 265 261 257 262 261 256 256 258 263 269 274 279 281 283 285 286 287 289 288 288 289 288 287 286 285 286 284 282 282 282 283 283 281 276 273 272 272 272 270 266 266 269 267 261 254 251 248 245 242 240 238 236 234 232 233 235 234
182 196 200 185 200 227 148 112 162 221 230 244 283 253 226 227 225 228 239 240 233 227 231 240 251 257 262 266 267 268 269 270 269 267 265 264 266 273 281 282 282 284 286 288 290 291 293 293 293 293 292 291 290 288 286 284 282 282 280 279 279 279 279 277 275 275 274 271 267 266 267 267 263 258 253 250 246 243 242 241 239 236 234 234 237 236
176 182 194 193 180 172 144 183 218 243 278 301 288 260 229 217 213 236 253 252 240 234 235 241 249 255 261 267 268 269 271 273 272 272 271 272 276 280 282 283 285 288 291 293 295 296 299 299 299 303 307 307 306 302 299 296 292 287 282 279 278 277 278 277 276 275 273 270 267 266 266 265 263 259 255 253 250 246 243 242 240 238 236 235 237 238
167 170 181 200 197 196 215 225 240 294 306 278 264 246 196 184 186 198 245 257 244 231 231 241 249 253 257 261 263 266 267 270 274 275 277 285 284 283 284 287 292 296 298 301 301 302 307 308 309 317 320 320 318 311 307 305 302 297 292 287 282 278 277 277 276 275 273 272 271 270 269 267 265 261 258 255 253 250 247 244 241 239 237 236 236 237
184 186 179 197 206 192 215 238 247 256 255 253 254 229 175 192 195 173 206 255 255 228 222 233 244 247 248 249 252 256 260 269 277 278 299 292 289 290 293 295 298 303 307 310 311 314 315 311 315 323 324 326 327 319 311 306 301 299 297 294 291 287 283 280 280 279 277 277 276 274 272 270 267 263 259 256 256 254 250 246 243 241 239 237 236 237
197 205 189 203 211 190 207 230 224 226 246 254 257 224 178 190 186 154 187 252 258 200 209 226 238 239 236 239 244 248 252 268 272 276 282 285 288 293 296 297 305 313 315 317 317 317 314 313 320 327 328 330 330 327 321 314 305 298 294 294 293 290 288 287 289 289 287 285 281 277 274 271 267 263 259 257 257 255 252 249 246 244 241 238 237 237
196 197 195 208 215 206 212 225 225 237 258 250 229 256 207 183 167 148 205 252 198 164 199 220 229 233 237 241 245 231 187 217 254 275 283 284 291 299 300 306 317 320 322 320 313 309 311 318 324 326 327 326 325 325 323 319 311 303 297 294 291 290 292 296 296 294 290 286 282 277 273 269 265 262 259 259 258 256 254 251 248 246 244 241 238 238
197 197 195 206 216 212 214 228 240 247 249 237 213 191 131 120 145 177 215 216 175 175 206 226 232 242 247 248 243 221 227 244 263 280 289 295 300 303 305 311 317 322 324 318 312 313 317 319 321 322 322 321 319 318 318 316 312 308 301 294 292 295 300 299 296 292 288 284 280 276 272 268 265 263 261 259 258 255 253 251 249 248 247 244 241 238
188 195 194 204 214 213 219 230 249 262 243 207 169 163 150 129 191 217 204 132 157 174 9 326 267 276 281 266 252 250 265 279 290 300 312 314 308 308 311 314 319 325 324 318 318 320 317 317 319 319 318 317 314 313 313 313 312 309 303 298 301 305 303 297 293 290 288 284 280 275 271 268 265 263 260 258 256 254 253 251 250 248 247 245 241 239
178 178 190 201 195 195 223 216 218 260 230 164 149 151 181 185 219 214 187 131 102 323 332 329 310 318 332 325 329 323 312 315 320 322 323 322 320 320 318 317 320 322 320 317 315 314 314 315 316 317 316 313 309 307 308 309 309 307 302 301 305 306 302 299 297 292 288 284 281 276 271 268 265 262 260 258 256 255 253 250 249 247 245 243 239 238
177 175 192 204 183 169 200 211 212 239 184 166 168 188 206 209 229 234 187 199 263 282 290 297 301 324 336 336 334 324 315 316 318 319 320 321 321 318 314 313 313 311 310 310 308 309 310 310 311 312 311 308 306 305 306 306 306 305 302 302 303 302 301 300 298 293 289 285 281 277 272 268 265 262 260 258 255 252 249 247 246 244 243 240 237 237
195 192 188 189 188 182 197 214 208 172 168 182 195 213 209 213 228 236 183 185 217 247 263 295 321 330 335 330 321 316 313 312 313 315 318 317 316 315 314 311 308 307 306 305 305 306 306 306 306 306 304 303 304 304 305 304 303 302 301 300 300 300 301 300 296 293 289 284 280 277 273 268 263 260 257 255 252 250 247 245 244 242 240 239 237 238
212 205 181 149 200 223 240 244 228 162 180 203 213 223 222 224 239 259 286 346 347 318 318 324 323 328 331 322 317 316 314 313 315 314 314 314 313 313 313 311 310 310 309 307 307 307 306 306 306 305 303 303 303 303 303 302 301 300 299 298 297 299 299 298 294 290 286 280 277 274 270 265 260 256 253 250 249 248 246 246 245 242 240 238 238 239
254 134 95 123 209 217 238 248 237 195 233 228 227 236 251 291 353 0 358 356 342 326 327 327 323 323 319 313 315 315 312 313 313 310 309 310 308 307 308 308 309 311 312 312 311 310 308 307 306 305 304 303 303 303 302 301 300 299 297 296 296 297 297 295 292 287 280 276 273 270 266 262 257 253 250 246 244 242 241 242 242 241 241 240 239 239
1 70 111 207 218 203 225 254 304 69 344 289 268 263 290 11 7 356 350 343 334 325 319 316 314 313 312 313 316 314 309 306 304 304 305 304 303 303 304 305 306 308 309 310 309 308 307 305 304 304 303 302 303 302 300 300 300 298 295 294 294 294 294 291 287 281 274 270 267 265 262 259 255 251 247 244 241 240 239 240 241 243 244 244 243 241
52 47 145 138 117 259 265 274 287 302 292 290 294 326 343 335 333 333 329 325 324 321 314 312 312 311 312 315 313 308 303 299 299 302 303 301 301 303 304 305 306 305 304 305 305 304 304 303 304 303 302 301 301 300 299 299 298 296 292 291 291 290 289 286 281 274 267 263 261 258 254 250 246 244 242 239 237 236 237 239 242 244 243 240 238 239
84 231 216 79 32 267 234 221 86 133 275 295 316 321 313 315 322 325 319 314 315 314 310 308 305 304 306 309 308 305 301 299 300 303 303 301 301 302 304 306 305 304 305 305 304 303 302 303 304 303 302 301 301 299 297 296 295 292 289 287 286 285 283 280 274 267 262 258 254 249 243 237 234 233 233 234 234 233 233 234 234 234 232 230 230 230
184 208 184 143 230 244 217 234 0 17 292 296 305 308 308 312 317 315 310 309 308 305 303 302 300 300 300 301 301 301 300 299 300 302 302 300 299 301 303 304 304 304 305 305 305 305 305 305 304 302 301 301 300 298 295 293 291 288 285 283 281 279 275 271 266 261 258 254 248 240 232 226 224 222 222 225 227 228 229 228 224 219 215 216 219 219
Height
1524 1528 1530 1530 1529 1527 1526 1526 1527 1528 1528 1530 1531 1532 1533 1534 1537 1538 1540 1540 1539 1540 1539 1537 1536 1533 1530 1528 1526 1526 1525 1524 1524 1524 1522 1522 1521 1522 1524 1524 1523 1522 1523 1524 1525 1525 1527 1528 1529 1530 1531 1532 1533 1534 1535 1536 1537 1538 1539 1540 1541 1541 1542 1543 1544 1545 1546 1547 1547 1549 1550 1550 1551 1552 1552 1553 1555 1556 1557 1559 1561 1563 1564 1565 1566 1567
1526 1530 1529 1526 1525 1524 1524 1525 1526 1528 1529 1531 1532 1535 1535 1535 1538 1539 1540 1540 1539 1541 1538 1534 1534 1531 1527 1526 1524 1523 1523 1520 1519 1520 1518 1517 1518 1519 1520 1521 1521 1521 1521 1522 1522 1522 1524 1525 1527 1528 1528 1529 1530 1531 1533 1533 1534 1535 1536 1537 1538 1539 1539 1540 1541 1542 1543 1544 1545 1546 1547 1548 1549 1549 1550 1551 1553 1554 1556 1557 1559 1560 1561 1562 1564 1565
1530 1531 1527 1524 1524 1524 1525 1525 1527 1530 1531 1533 1534 1537 1539 1536 1538 1541 1541 1540 1540 1542 1539 1535 1537 1532 1524 1523 1522 1519 1518 1516 1514 1515 1514 1514 1515 1516 1516 1517 1518 1519 1519 1519 1519 1520 1521 1523 1524 1525 1526 1527 1528 1529 1530 1530 1531 1532 1533 1534 1535 1536 1537 1538 1539 1539 1540 1541 1542 1543 1544 1545 1546 1547 1548 1549 1551 1553 1554 1556 1557 1558 1560 1561 1562 1563
1533 1530 1524 1524 1524 1524 1527 1528 1529 1532 1533 1535 1536 1539 1541 1537 1538 1543 1543 1541 1540 1541 1541 1539 1540 1534 1523 1519 1516 1513 1513 1512 1512 1512 1510 1511 1512 1512 1514 1515 1515 1516 1516 1516 1517 1518 1519 1521 1521 1522 1523 1524 1525 1526 1526 1527 1528 1529 1530 1531 1532 1533 1534 1535 1536 1537 1538 1538 1539 1540 1542 1543 1544 1545 1546 1547 1549 1551 1552 1554 1555 1557 1558 1559 1560 1561
1529 1527 1524 1524 1525 1525 1529 1531 1532 1535 1536 1536 1536 1538 1539 1537 1538 1541 1542 1540 1539 1541 1542 1540 1539 1530 1518 1516 1513 1509 1510 1509 1509 1509 1508 1507 1508 1510 1511 1512 1513 1514 1513 1514 1515 1516 1517 1518 1519 1520 1521 1522 1522 1522 1523 1524 1525 1526 1527 1528 1529 1530 1531 1532 1533 1534 1535 1536 1537 1538 1539 1540 1541 1542 1543 1544 1546 1548 1550 1552 1554 1555 1556 1558 1559 1560
1526 1527 1526 1526 1526 1526 1530 1533 1532 1535 1538 1536 1536 1537 1536 1537 1539 1540 1541 1541 1542 1546 1544 1542 1544 1532 1515 1513 1513 1509 1509 1509 1508 1507 1505 1504 1505 1508 1509 1509 1511 1512 1512 1512 1512 1513 1515 1515 1517 1517 1518 1519 1519 1519 1520 1521 1523 1523 1524 1525 1526 1527 1528 1529 1530 1531 1532 1533 1534 1535 1536 1537 1538 1539 1540 1542 1544 1546 1548 1550 1552 1553 1555 1556 1557 1558
1526 1527 1526 1526 1528 1529 1531 1533 1532 1533 1538 1540 1539 1539 1537 1536 1540 1542 1542 1544 1547 1548 1542 1541 1550 1543 1524 1517 1514 1510 1509 1507 1507 1506 1503 1502 1504 1505 1506 1506 1508 1509 1510 1511 1511 1511 1512 1513 1514 1514 1515 1516 1517 1517 1518 1519 1520 1521 1522 1523 1524 1525 1526 1526 1527 1529 1530 1530 1531 1533 1534 1535 1536 1537 1539 1541 1543 1545 1547 1549 1550 1552 1553 1554 1556 1557
1526 1528 1528 1527 1529 1532 1534 1535 1532 1532 1538 1542 1540 1540 1538 1537 1541 1543 1544 1547 1547 1545 1543 1540 1545 1548 1536 1520 1510 1507 1508 1506 1505 1505 1501 1500 1502 1503 1504 1505 1506 1507 1508 1509 1509 1508 1509 1510 1511 1512 1513 1514 1515 1515 1516 1517 1518 1519 1520 1520 1521 1522 1523 1523 1525 1526 1527 1528 1529 1531 1532 1533 1534 1536 1538 1540 1542 1543 1545 1547 1548 1550 1552 1553 1554 1556
1525 1528 1528 1528 1531 1534 1535 1536 1533 1532 1537 1542 1541 1539 1538 1539 1542 1542 1544 1547 1546 1547 1549 1543 1543 1548 1535 1513 1504 1504 1506 1507 1504 1502 1499 1499 1501 1502 1503 1504 1504 1505 1506 1506 1507 1507 1507 1508 1509 1510 1511 1512 1513 1513 1514 1515 1516 1517 1518 1518 1519 1519 1520 1520 1522 1524 1524 1525 1527 1528 1529 1531 1532 1534 1536 1538 1540 1541 1543 1545 1547 1548 1550 1552 1553 1554
1527 1528 1528 1527 1530 1533 1535 1537 1535 1533 1536 1539 1540 1539 1539 1540 1541 1543 1546 1547 1548 1551 1551 1543 1542 1546 1529 1505 1502 1505 1505 1506 1502 1498 1499 1499 1501 1501 1501 1503 1503 1503 1504 1504 1505 1505 1505 1506 1507 1508 1509 1510 1511 1511 1513 1513 1514 1515 1515 1516 1516 1516 1517 1518 1520 1521 1522 1523 1524 1526 1527 1528 1530 1531 1534 1535 1537 1539 1541 1543 1545 1546 1548 1550 1551 1553
1528 1528 1528 1528 1530 1532 1535 1537 1536 1535 1536 1537 1539 1539 1541 1543 1543 1546 1546 1547 1553 1552 1547 1540 1537 1541 1532 1509 1502 1504 1501 1500 1498 1498 1500 1500 1500 1500 1500 1501 1501 1502 1502 1502 1503 1503 1504 1505 1506 1507 1507 1509 1510 1510 1511 1512 1513 1513 1513 1514 1514 1514 1515 1516 1517 1518 1519 1521 1522 1523 1525 1526 1528 1529 1531 1533 1534 1536 1539 1541 1542 1544 1546 1548 1550 1551
1529 1530 1530 1530 1531 1531 1533 1536 1537 1537 1537 1538 1539 1539 1544 1547 1548 1551 1551 1554 1559 1553 1546 1543 1538 1540 1536 1516 1503 1501 1497 1496 1498 1499 1500 1499 1499 1499 1499 1499 1499 1500 1501 1501 1502 1502 1503 1504 1504 1505 1506 1508 1509 1509 1510 1511 1511 1512 1512 1512 1512 1512 1512 1513 1515 1516 1517 1518 1519 1521 1523 1524 1526 1528 1530 1531 1532 1534 1536 1538 1540 1542 1544 1546 1548 1550
1531 1531 1530 1531 1532 1531 1532 1536 1540 1540 1539 1539 1539 1541 1549 1554 1556 1559 1560 1560 1560 1552 1547 1545 1543 1540 1528 1510 1502 1500 1497 1496 1497 1498 1497 1497 1498 1498 1498 1499 1498 1499 1500 1500 1501 1502 1502 1503 1503 1504 1505 1506 1508 1508 1509 1509 1509 1510 1510 1510 1510 1510 1510 1511 1513 1514 1515 1516 1517 1519 1521 1523 1524 1526 1528 1529 1531 1533 1534 1536 1538 1540 1542 1544 1545 1547
1533 1533 1532 1533 1533 1530 1529 1534 1540 1541 1540 1540 1539 1543 1551 1556 1561 1563 1560 1557 1553 1550 1549 1547 1545 1539 1521 1505 1500 1498 1496 1496 1495 1496 1496 1495 1497 1498 1497 1498 1497 1498 1499 1499 1501 1501 1502 1503 1503 1504 1505 1505 1507 1507 1507 1508 1508 1508 1508 1508 1508 1508 1509 1510 1511 1512 1513 1514 1515 1517 1519 1520 1522 1523 1525 1528 1529 1531 1532 1533 1536 1538 1540 1541 1543 1545
1533 1534 1530 1529 1528 1527 1527 1528 1531 1533 1537 1539 1534 1537 1543 1546 1551 1554 1552 1550 1549 1549 1552 1552 1546 1532 1517 1505 1497 1495 1495 1495 1495 1496 1496 1495 1497 1498 1497 1497 1497 1497 1498 1498 1499 1500 1501 1502 1502 1503 1504 1504 1505 1505 1506 1506 1506 1506 1506 1506 1507 1507 1507 1508 1508 1509 1510 1512 1513 1515 1517 1518 1519 1521 1524 1526 1527 1529 1530 1531 1534 1536 1537 1539 1541 1543
1526 1526 1524 1524 1522 1523 1526 1526 1524 1529 1537 1538 1532 1536 1541 1536 1536 1545 1551 1549 1550 1553 1552 1550 1540 1521 1508 1499 1493 1494 1494 1494 1496 1495 1494 1495 1495 1497 1497 1495 1495 1495 1496 1497 1498 1499 1500 1501 1501 1502 1502 1503 1503 1504 1504 1504 1504 1503 1503 1504 1505 1505 1505 1506 1506 1507 1508 1509 1511 1512 1514 1515 1517 1520 1521 1523 1525 1526 1528 1529 1531 1533 1535 1537 1539 1540
1522 1526 1525 1526 1524 1524 1526 1526 1525 1528 1533 1535 1536 1538 1536 1531 1532 1542 1553 1551 1552 1554 1544 1536 1530 1514 1507 1498 1486 1488 1491 1491 1495 1494 1493 1495 1494 1495 1495 1493 1494 1494 1494 1495 1496 1498 1498 1499 1500 1500 1500 1501 1501 1502 1501 1501 1501 1501 1501 1502 1503 1503 1503 1503 1504 1505 1506 1507 1508 1509 1511 1513 1515 1517 1519 1520 1522 1524 1526 1527 1529 1530 1532 1534 1536 1538
1513 1526 1529 1528 1527 1528 1527 1527 1527 1527 1529 1533 1538 1536 1530 1533 1534 1537 1549 1552 1553 1554 1539 1526 1523 1517 1516 1505 1486 1484 1489 1490 1493 1493 1493 1493 1493 1493 1491 1490 1493 1493 1493 1494 1494 1495 1496 1497 1498 1498 1498 1499 1499 1499 1499 1499 1499 1498 1499 1499 1500 1501 1501 1502 1502 1503 1504 1504 1506 1507 1508 1510 1512 1515 1517 1518 1520 1522 1523 1525 1526 1527 1529 1531 1533 1535
1504 1520 1532 1532 1531 1530 1527 1528 1530 1529 1530 1531 1533 1532 1532 1539 1541 1539 1546 1550 1552 1555 1541 1524 1521 1517 1512 1502 1490 1489 1491 1489 1490 1491 1491 1492 1490 1490 1489 1489 1492 1491 1492 1493 1492 1493 1494 1494 1495 1495 1496 1496 1496 1497 1497 1497 1497 1496 1497 1497 1498 1498 1499 1499 1500 1500 1501 1502 1503 1505 1506 1508 1510 1512 1514 1516 1517 1519 1520 1522 1523 1525 1527 1528 1530 1532
1502 1513 1527 1533 1532 1530 1529 1530 1531 1531 1532 1532 1532 1532 1532 1535 1538 1537 1539 1540 1543 1549 1541 1530 1525 1512 1497 1491 1489 1490 1488 1486 1487 1488 1489 1489 1488 1488 1488 1489 1490 1490 1491 1491 1491 1492 1492 1493 1493 1493 1494 1494 1494 1495 1495 1495 1495 1495 1495 1496 1496 1496 1496 1497 1497 1497 1498 1499 1500 1502 1503 1505 1507 1509 1511 1513 1514 1515 1517 1519 1520 1522 1524 1526 1527 1529
1504 1508 1520 1534 1535 1531 1530 1526 1525 1525 1528 1532 1534 1534 1533 1534 1537 1537 1534 1530 1533 1541 1540 1536 1531 1507 1485 1483 1484 1483 1482 1481 1483 1485 1486 1486 1486 1487 1488 1488 1489 1489 1489 1490 1490 1490 1491 1491 1491 1491 1491 1492 1493 1493 1493 1493 1493 1493 1494 1494 1494 1494 1494 1494 1494 1494 1495 1496 1497 1499 1500 1502 1504 1506 1508 1510 1511 1512 1514 1516 1517 1519 1521 1523 1525 1526
1504 1507 1517 1533 1535 1528 1523 1519 1518 1519 1520 1524 1527 1527 1527 1529 1534 1540 1539 1530 1529 1534 1532 1534 1533 1504 1478 1478 1479 1479 1481 1480 1480 1483 1484 1485 1486 1486 1487 1487 1487 1487 1488 1488 1488 1489 1489 1488 1489 1489 1489 1490 1490 1491 1491 1491 1491 1492 1491 1492 1492 1492 1492 1492 1492 1492 1492 1493 1494 1496 1497 1499 1501 1503 1504 1506 1507 1509 1511 1512 1514 1516 1518 1520 1522 1523
1497 1503 1513 1524 1526 1523 1521 1519 1520 1521 1518 1519 1521 1520 1521 1525 1528 1536 1540 1533 1530 1532 1526 1531 1534 1501 1472 1476 1479 1478 1481 1480 1481 1483 1482 1484 1485 1485 1485 1485 1486 1486 1486 1487 1487 1487 1487 1486 1487 1487 1487 1487 1488 1489 1489 1489 1489 1490 1489 1490 1490 1489 1489 1489 1489 1490 1490 1491 1491 1493 1494 1496 1497 1499 1501 1502 1503 1505 1508 1509 1511 1513 1515 1517 1519 1520
1496 1502 1510 1516 1518 1520 1521 1520 1519 1520 1520 1521 1521 1519 1521 1523 1522 1526 1529 1527 1529 1530 1525 1534 1536 1500 1473 1477 1480 1478 1481 1480 1481 1482 1482 1484 1484 1483 1484 1484 1484 1485 1484 1485 1486 1486 1486 1486 1485 1485 1485 1485 1485 1486 1487 1487 1488 1488 1487 1488 1487 1487 1487 1486 1486 1487 1487 1488 1489 1490 1491 1492 1493 1495 1496 1498 1500 1502 1505 1507 1508 1510 1512 1514 1515 1517
1496 1502 1507 1514 1521 1523 1524 1524 1523 1522 1523 1522 1520 1519 1519 1518 1519 1522 1522 1525 1529 1524 1519 1529 1526 1495 1476 1479 1479 1478 1481 1480 1480 1481 1481 1482 1482 1481 1482 1482 1483 1483 1483 1484 1484 1484 1484 1484 1484 1484 1484 1484 1483 1484 1485 1486 1486 1486 1485 1486 1485 1484 1484 1483 1483 1484 1484 1485 1486 1486 1487 1488 1489 1491 1492 1494 1496 1498 1502 1504 1505 1507 1509 1511 1512 1514
1491 1496 1500 1509 1518 1521 1519 1517 1515 1516 1520 1521 1517 1515 1516 1515 1517 1519 1521 1529 1528 1516 1513 1519 1510 1488 1477 1480 1480 1480 1481 1480 1480 1480 1480 1480 1480 1480 1481 1481 1481 1481 1481 1482 1482 1482 1483 1483 1483 1483 1483 1483 1482 1481 1482 1483 1484 1484 1483 1483 1482 1482 1482 1481 1480 1480 1481 1482 1482 1483 1483 1484 1485 1486 1488 1490 1492 1495 1498 1500 1501 1503 1505 1507 1509 1511
1486 1490 1492 1497 1500 1502 1500 1497 1496 1502 1511 1514 1510 1510 1513 1513 1513 1516 1521 1523 1517 1511 1512 1508 1501 1492 1482 1479 1482 1482 1480 1481 1480 1479 1479 1478 1478 1479 1479 1479 1479 1479 1480 1480 1479 1480 1481 1481 1482 1482 1481 1481 1481 1480 1480 1480 1480 1481 1481 1480 1480 1479 1478 1478 1477 1477 1478 1478 1479 1480 1480 1480 1481 1482 1484 1486 1489 1491 1494 1496 1498 1499 1502 1504 1506 1508
1485 1489 1489 1489 1489 1487 1486 1485 1489 1494 1498 1500 1502 1505 1508 1508 1510 1514 1514 1507 1503 1511 1510 1496 1495 1498 1483 1474 1482 1482 1479 1481 1480 1478 1478 1476 1477 1478 1477 1477 1477 1477 1478 1477 1478 1479 1479 1480 1481 1480 1479 1479 1478 1479 1478 1477 1477 1477 1477 1477 1477 1476 1475 1475 1474 1474 1475 1475 1476 1476 1476 1477 1478 1479 1480 1483 1485 1487 1490 1492 1494 1496 1499 1501 1502 1504
1483 1486 1485 1486 1487 1484 1481 1483 1487 1490 1490 1492 1495 1498 1501 1504 1507 1508 1503 1495 1495 1505 1501 1487 1490 1494 1477 1470 1478 1478 1476 1478 1476 1475 1475 1474 1475 1475 1474 1475 1475 1475 1476 1475 1476 1477 1477 1478 1477 1476 1476 1476 1476 1476 1475 1474 1474 1473 1473 1474 1473 1472 1472 1471 1471 1471 1471 1472 1472 1473 1473 1474 1474 1475 1476 1478 1480 1482 1484 1487 1490 1492 1495 1496 1498 1500
1482 1483 1482 1483 1485 1484 1482 1482 1484 1487 1490 1490 1491 1492 1494 1496 1497 1495 1492 1488 1490 1496 1492 1485 1489 1485 1470 1469 1475 1473 1473 1474 1473 1473 1473 1472 1473 1472 1472 1472 1472 1473 1474 1473 1474 1475 1474 1473 1473 1473 1473 1472 1472 1472 1471 1471 1470 1469 1469 1470 1469 1469 1469 1468 1468 1468 1468 1468 1469 1470 1470 1471 1471 1472 1472 1473 1475 1477 1479 1482 1485 1487 1490 1492 1494 1496
1481 1481 1479 1481 1486 1486 1482 1481 1483 1487 1489 1489 1490 1490 1487 1487 1488 1487 1486 1487 1492 1495 1489 1488 1492 1479 1461 1465 1473 1470 1470 1472 1471 1471 1471 1470 1471 1470 1469 1470 1470 1471 1471 1471 1472 1471 1470 1470 1470 1470 1469 1469 1469 1469 1468 1468 1467 1466 1466 1465 1464 1465 1465 1465 1464 1464 1465 1466 1466 1467 1467 1468 1468 1468 1469 1469 1471 1472 1474 1477 1479 1482 1485 1487 1489 1491
1482 1483 1480 1482 1490 1487 1479 1480 1485 1486 1489 1492 1490 1483 1480 1482 1483 1483 1485 1486 1488 1489 1488 1492 1491 1471 1456 1465 1472 1467 1466 1470 1468 1468 1469 1468 1468 1468 1467 1467 1468 1468 1468 1468 1468 1467 1467 1468 1467 1466 1466 1465 1465 1465 1464 1464 1463 1462 1462 1461 1461 1461 1461 1461 1461 1461 1462 1462 1463 1463 1463 1464 1465 1465 1466 1466 1467 1468 1470 1472 1474 1477 1480 1482 1484 1486
1479 1481 1479 1484 1490 1485 1478 1481 1484 1488 1495 1492 1477 1468 1472 1477 1477 1478 1480 1478 1477 1480 1484 1486 1477 1461 1456 1466 1468 1464 1466 1468 1465 1465 1466 1465 1466 1466 1464 1464 1465 1465 1465 1464 1464 1464 1464 1464 1463 1463 1462 1462 1461 1460 1460 1460 1459 1458 1458 1458 1457 1457 1457 1457 1457 1458 1458 1459 1459 1460 1460 1461 1460 1461 1462 1463 1464 1465 1466 1468 1470 1472 1474 1477 1480 1482
1476 1477 1477 1480 1483 1482 1480 1481 1486 1492 1492 1476 1458 1456 1464 1467 1470 1473 1473 1469 1469 1472 1473 1470 1463 1457 1458 1463 1463 1463 1464 1464 1463 1462 1462 1462 1463 1462 1461 1462 1462 1461 1461 1461 1460 1460 1460 1460 1459 1459 1458 1458 1457 1456 1456 1455 1454 1454 1454 1454 1453 1452 1452 1453 1453 1453 1454 1454 1455 1456 1457 1457 1456 1457 1458 1460 1461 1462 1462 1464 1465 1467 1470 1473 1475 1477
1474 1476 1477 1477 1479 1482 1483 1487 1491 1489 1475 1459 1454 1456 1457 1458 1461 1465 1463 1461 1463 1465 1465 1463 1460 1456 1455 1458 1460 1460 1459 1460 1460 1457 1456 1459 1460 1459 1459 1459 1459 1458 1457 1457 1456 1456 1456 1455 1455 1454 1454 1453 1453 1452 1451 1451 1450 1450 1450 1450 1449 1449 1448 1449 1448 1449 1449 1449 1450 1451 1452 1452 1451 1452 1454 1455 1457 1458 1458 1459 1461 1463 1466 1468 1470 1472
1472 1475 1476 1475 1478 1482 1486 1487 1484 1473 1461 1458 1457 1454 1454 1457 1460 1462 1462 1459 1458 1459 1460 1459 1457 1454 1454 1457 1458 1456 1456 1456 1453 1449 1451 1457 1458 1457 1456 1455 1455 1455 1454 1453 1453 1452 1452 1452 1451 1451 1451 1450 1450 1449 1448 1448 1447 1446 1446 1446 1446 1445 1445 1445 1444 1445 1445 1444 1445 1446 1447 1447 1447 1448 1450 1451 1452 1452 1453 1454 1456 1458 1461 1463 1466 1468
1471 1472 1474 1475 1475 1476 1479 1477 1471 1468 1466 1460 1452 1447 1451 1456 1457 1460 1463 1457 1451 1452 1455 1455 1454 1453 1454 1455 1454 1452 1453 1453 1448 1445 1449 1454 1454 1454 1454 1453 1453 1452 1451 1451 1451 1450 1450 1450 1449 1449 1449 1448 1448 1447 1446 1445 1444 1443 1443 1443 1442 1442 1441 1441 1440 1440 1440 1440 1441 1442 1443 1443 1444 1444 1445 1446 1446 1446 1447 1449 1451 1453 1456 1458 1461 1463
1470 1470 1471 1473 1471 1471 1476 1476 1474 1477 1469 1452 1442 1443 1447 1450 1451 1455 1460 1454 1445 1446 1450 1451 1450 1450 1451 1452 1449 1447 1450 1453 1448 1445 1449 1451 1451 1451 1451 1451 1451 1450 1450 1449 1449 1448 1448 1448 1447 1447 1447 1447 1446 1445 1444 1443 1442 1441 1440 1440 1439 1439 1438 1437 1436 1436 1436 1436 1437 1437 1438 1439 1439 1440 1440 1440 1440 1441 1442 1444 1446 1448 1450 1452 1455 1458
1470 1470 1470 1472 1472 1472 1477 1476 1473 1469 1457 1444 1442 1443 1444 1446 1447 1452 1461 1455 1441 1440 1446 1446 1445 1446 1446 1444 1442 1444 1451 1454 1449 1446 1448 1448 1448 1449 1450 1449 1449 1449 1448 1448 1447 1447 1446 1446 1446 1446 1445 1444 1444 1443 1442 1441 1440 1439 1438 1437 1437 1436 1435 1434 1433 1433 1433 1433 1433 1433 1434 1434 1434 1435 1435 1436 1436 1437 1438 1440 1442 1443 1445 1447 1450 1453
1468 1470 1472 1473 1471 1470 1472 1470 1465 1459 1449 1443 1444 1444 1443 1443 1444 1454 1463 1454 1438 1437 1441 1439 1440 1441 1439 1439 1442 1445 1450 1450 1447 1445 1446 1446 1447 1447 1447 1447 1447 1447 1446 1446 1445 1444 1444 1444 1443 1443 1442 1442 1441 1441 1440 1439 1438 1437 1436 1435 1434 1432 1431 1431 1431 1430 1430 1429 1429 1429 1429 1429 1430 1430 1431 1432 1432 1434 1435 1436 1438 1439 1440 1443 1446 1449
1465 1466 1467 1467 1466 1466 1467 1464 1460 1455 1446 1442 1443 1443 1443 1445 1448 1454 1453 1442 1434 1436 1437 1436 1438 1439 1437 1439 1442 1443 1443 1444 1444 1444 1445 1445 1446 1446 1445 1445 1445 1445 1444 1444 1443 1442 1442 1442 1441 1440 1440 1439 1438 1438 1438 1437 1436 1435 1434 1432 1430 1429 1429 1428 1428 1427 1426 1425 1425 1425 1424 1425 1425 1426 1427 1428 1429 1430 1431 1432 1434 1435 1437 1439 1442 1444
1459 1462 1462 1463 1463 1463 1462 1461 1461 1453 1441 1437 1441 1442 1443 1447 1449 1445 1438 1433 1434 1436 1436 1437 1439 1438 1438 1439 1440 1440 1441 1442 1442 1443 1444 1444 1444 1444 1444 1444 1443 1443 1443 1442 1441 1441 1440 1439 1439 1438 1437 1436 1436 1436 1435 1434 1433 1432 1430 1428 1426 1426 1425 1424 1424 1423 1422 1422 1421 1420 1420 1421 1422 1423 1424 1425 1426 1427 1428 1429 1431 1432 1434 1436 1439 1441
1448 1453 1456 1455 1455 1458 1460 1461 1459 1449 1435 1432 1438 1441 1441 1441 1438 1434 1432 1434 1435 1435 1436 1438 1438 1438 1439 1438 1437 1439 1439 1439 1440 1441 1441 1442 1443 1442 1442 1442 1441 1441 1440 1439 1439 1438 1437 1436 1436 1435 1434 1434 1434 1434 1433 1432 1430 1428 1426 1424 1423 1422 1421 1420 1420 1419 1418 1418 1417 1417 1417 1417 1418 1419 1420 1421 1423 1424 1425 1426 1428 1429 1431 1434 1436 1437
1438 1442 1445 1443 1442 1449 1454 1451 1444 1435 1429 1429 1432 1434 1434 1433 1430 1431 1433 1433 1434 1435 1437 1437 1438 1438 1438 1436 1437 1437 1437 1437 1438 1438 1438 1440 1440 1440 1440 1440 1439 1439 1438 1438 1437 1436 1435 1434 1432 1432 1432 1432 1431 1431 1430 1428 1426 1424 1423 1421 1420 1419 1417 1417 1416 1415 1414 1414 1414 1413 1414 1414 1415 1416 1416 1418 1419 1420 1421 1422 1424 1426 1428 1430 1432 1434
1429 1427 1429 1431 1431 1434 1436 1433 1428 1427 1428 1429 1429 1429 1431 1431 1431 1432 1433 1432 1434 1435 1436 1437 1438 1438 1437 1437 1437 1437 1437 1437 1437 1436 1437 1437 1436 1437 1437 1437 1437 1437 1436 1436 1435 1433 1432 1430 1429 1429 1429 1429 1428 1427 1426 1424 1422 1420 1419 1418 1416 1415 1414 1413 1412 1411 1411 1410 1410 1410 1410 1411 1412 1412 1413 1414 1415 1416 1417 1419 1420 1422 1425 1427 1429 1431
1423 1421 1423 1426 1427 1427 1426 1425 1425 1427 1428 1428 1429 1430 1431 1431 1432 1433 1433 1434 1435 1435 1435 1436 1437 1436 1437 1437 1436 1436 1436 1435 1435 1435 1435 1434 1433 1434 1434 1433 1434 1434 1433 1432 1432 1431 1429 1427 1426 1426 1425 1425 1425 1423 1422 1420 1418 1416 1415 1414 1413 1411 1410 1409 1408 1407 1407 1406 1406 1407 1407 1408 1408 1409 1410 1412 1413 1414 1415 1416 1418 1420 1421 1423 1425 1427
1423 1424 1425 1426 1427 1428 1427 1424 1424 1426 1427 1428 1429 1430 1431 1432 1433 1433 1434 1434 1434 1435 1435 1435 1436 1436 1436 1436 1435 1434 1434 1433 1433 1433 1432 1432 1431 1431 1430 1430 1429 1429 1429 1428 1427 1427 1426 1425 1423 1422 1421 1421 1420 1419 1418 1416 1415 1413 1412 1410 1409 1408 1406 1405 1404 1403 1403 1402 1403 1403 1404 1404 1405 1406 1408 1409 1410 1411 1413 1414 1416 1417 1418 1420 1422 1423
1424 1425 1426 1427 1428 1428 1426 1424 1424 1427 1428 1428 1429 1430 1431 1431 1432 1432 1433 1433 1433 1434 1435 1435 1435 1435 1434 1434 1434 1432 1431 1431 1431 1430 1429 1429 1429 1428 1427 1427 1426 1425 1425 1424 1423 1422 1422 1421 1420 1419 1417 1416 1416 1415 1414 1412 1411 1410 1408 1407 1406 1404 1403 1401 1400 1399 1399 1399 1399 1399 1400 1402 1403 1404 1406 1407 1408 1410 1411 1413 1414 1416 1417 1419 1420 1422
1425 1426 1427 1427 1428 1427 1425 1424 1425 1426 1427 1427 1428 1430 1430 1430 1430 1431 1431 1432 1432 1433 1433 1433 1434 1433 1432 1432 1432 1431 1430 1429 1429 1428 1427 1426 1425 1425 1424 1423 1422 1422 1421 1420 1420 1419 1417 1416 1416 1415 1413 1412 1412 1410 1409 1408 1407 1406 1404 1403 1402 1400 1399 1398 1396 1396 1395 1395 1395 1396 1397 1399 1400 1402 1404 1405 1407 1408 1410 1411 1413 1415 1416 1418 1419 1421
1427 1428 1427 1429 1430 1428 1425 1424 1425 1426 1427 1427 1428 1429 1429 1430 1430 1430 1430 1430 1431 1431 1431 1431 1431 1431 1430 1430 1430 1429 1428 1427 1426 1426 1425 1423 1422 1421 1420 1419 1419 1417 1416 1416 1416 1414 1413 1412 1411 1410 1408 1408 1407 1406 1404 1403 1402 1401 1400 1399 1397 1396 1395 1394 1393 1393 1392 1392 1393 1393 1394 1395 1397 1399 1401 1403 1404 1406 1408 1410 1412 1413 1415 1417 1419 1420
1426 1426 1427 1428 1429 1426 1424 1424 1425 1426 1427 1426 1426 1427 1427 1428 1429 1429 1429 1429 1429 1429 1430 1430 1429 1429 1428 1428 1428 1427 1425 1424 1424 1423 1421 1420 1419 1418 1417 1416 1415 1413 1412 1412 1410 1409 1409 1408 1407 1405 1404 1403 1402 1401 1399 1398 1397 1396 1395 1394 1393 1392 1391 1390 1390 1390 1390 1390 1390 1391 1391 1393 1394 1396 1398 1400 1402 1404 1406 1408 1410 1412 1413 1415 1417 1419